contact:dominique.lefevre@mio.osupytheas.fr, maurice.libes@osupytheas.fr, didier.mallarino@osupytheas.fr
Project:EMSO http://www.emso-fr.org/EMSO-France
Depth: 2436.0 m
Title:EMSO Ligure Ouest : Data MII capteur MICROCAT
DateTime_Computer,Latitude,Longitude,Temperature,Conductivity,Pressure,DateTime_Instrument
DateTime_Computer,Latitude,Longitude,degC,S m-1,dbar,DateTime_Instrument
2021-02-11T00:02:18Z,42.805,6.029,13.3006,4.60041,2470.203,2021-2-11T02:03:21Z
2021-02-11T00:05:21Z,42.805,6.029,13.3023,4.60075,2470.156,2021-2-11T02:06:24Z
2021-02-11T00:08:24Z,42.805,6.029,13.3014,4.60070,2470.18,2021-2-11T02:09:27Z
2021-02-11T00:11:27Z,42.805,6.029,13.3007,4.60061,2470.171,2021-2-11T02:12:30Z
2021-02-11T00:14:30Z,42.805,6.029,13.3007,4.60033,2470.171,2021-2-11T02:15:34Z
2021-02-11T00:17:33Z,42.805,6.029,13.3000,4.60026,2470.194,2021-2-11T02:18:37Z
2021-02-11T00:20:36Z,42.805,6.029,13.3005,4.60079,2470.133,2021-2-11T02:21:40Z
2021-02-11T00:23:39Z,42.805,6.029,13.3006,4.60067,2470.18,2021-2-11T02:24:43Z
2021-02-11T00:26:43Z,42.805,6.029,13.3006,4.60055,2470.18,2021-2-11T02:27:46Z
2021-02-11T00:29:46Z,42.805,6.029,13.3019,4.60065,2470.171,2021-2-11T02:30:49Z
2021-02-11T00:32:49Z,42.805,6.029,13.3009,4.60059,2470.194,2021-2-11T02:33:52Z
2021-02-11T00:35:52Z,42.805,6.029,13.3000,4.60043,2470.171,2021-2-11T02:36:55Z
2021-02-11T00:38:55Z,42.805,6.029,13.3019,4.60063,2470.156,2021-2-11T02:39:59Z
2021-02-11T00:41:58Z,42.805,6.029,13.3004,4.60076,2470.156,2021-2-11T02:43:02Z
2021-02-11T00:45:01Z,42.805,6.029,13.3006,4.60066,2470.171,2021-2-11T02:46:05Z
2021-02-11T00:48:04Z,42.805,6.029,13.3009,4.60052,2470.133,2021-2-11T02:49:08Z
2021-02-11T00:51:08Z,42.805,6.029,13.3006,4.60044,2470.156,2021-2-11T02:52:11Z
2021-02-11T00:54:11Z,42.805,6.029,13.3001,4.60042,2470.133,2021-2-11T02:55:14Z
2021-02-11T00:57:14Z,42.805,6.029,13.3003,4.60045,2470.171,2021-2-11T02:58:17Z
2021-02-11T01:00:17Z,42.805,6.029,13.3015,4.60074,2470.194,2021-2-11T03:01:20Z
2021-02-11T01:03:20Z,42.805,6.029,13.3007,4.60072,2470.171,2021-2-11T03:04:24Z
2021-02-11T01:06:23Z,42.805,6.029,13.3004,4.60046,2470.124,2021-2-11T03:07:27Z
2021-02-11T01:09:26Z,42.805,6.029,13.3001,4.60040,2470.147,2021-2-11T03:10:30Z
2021-02-11T01:12:29Z,42.805,6.029,13.3007,4.60029,2470.171,2021-2-11T03:13:33Z
2021-02-11T01:15:33Z,42.805,6.029,13.3002,4.60044,2470.171,2021-2-11T03:16:36Z
2021-02-11T01:18:36Z,42.805,6.029,13.3001,4.60055,2470.171,2021-2-11T03:19:39Z
2021-02-11T01:21:39Z,42.805,6.029,13.3013,4.60057,2470.171,2021-2-11T03:22:42Z
2021-02-11T01:24:42Z,42.805,6.029,13.3011,4.60053,2470.133,2021-2-11T03:25:45Z
2021-02-11T01:27:45Z,42.805,6.029,13.3006,4.60052,2470.147,2021-2-11T03:28:49Z
2021-02-11T01:30:48Z,42.805,6.029,13.2996,4.60043,2470.171,2021-2-11T03:31:52Z
2021-02-11T01:33:51Z,42.805,6.029,13.3000,4.60049,2470.171,2021-2-11T03:34:55Z
2021-02-11T01:36:54Z,42.805,6.029,13.3001,4.60041,2470.147,2021-2-11T03:37:58Z
2021-02-11T01:39:57Z,42.805,6.029,13.2999,4.60061,2470.171,2021-2-11T03:41:01Z
2021-02-11T01:43:01Z,42.805,6.029,13.3004,4.60034,2470.171,2021-2-11T03:44:04Z
2021-02-11T01:46:04Z,42.805,6.029,13.3007,4.60052,2470.18,2021-2-11T03:47:07Z
2021-02-11T01:49:07Z,42.805,6.029,13.3011,4.60037,2470.156,2021-2-11T03:50:10Z
2021-02-11T01:52:10Z,42.805,6.029,13.2998,4.60063,2470.156,2021-2-11T03:53:13Z
2021-02-11T01:55:13Z,42.805,6.029,13.3002,4.60064,2470.147,2021-2-11T03:56:17Z
2021-02-11T01:58:16Z,42.805,6.029,13.3008,4.60039,2470.133,2021-2-11T03:59:20Z
2021-02-11T02:01:19Z,42.805,6.029,13.3006,4.60069,2470.194,2021-2-11T04:02:23Z
2021-02-11T02:04:22Z,42.805,6.029,13.3006,4.60066,2470.217,2021-2-11T04:05:26Z
2021-02-11T02:07:26Z,42.805,6.029,13.3018,4.60038,2470.18,2021-2-11T04:08:29Z
2021-02-11T02:10:29Z,42.805,6.029,13.2999,4.60058,2470.171,2021-2-11T04:11:32Z
2021-02-11T02:13:32Z,42.805,6.029,13.3028,4.60064,2470.194,2021-2-11T04:14:35Z
2021-02-11T02:16:35Z,42.805,6.029,13.3002,4.60044,2470.156,2021-2-11T04:17:38Z
2021-02-11T02:19:38Z,42.805,6.029,13.3004,4.60029,2470.18,2021-2-11T04:20:42Z
2021-02-11T02:22:41Z,42.805,6.029,13.3004,4.60030,2470.217,2021-2-11T04:23:45Z
2021-02-11T02:25:44Z,42.805,6.029,13.3003,4.60062,2470.231,2021-2-11T04:26:48Z
2021-02-11T02:28:47Z,42.805,6.029,13.2999,4.60028,2470.18,2021-2-11T04:29:51Z
2021-02-11T02:31:51Z,42.805,6.029,13.3002,4.60017,2470.18,2021-2-11T04:32:54Z
2021-02-11T02:34:54Z,42.805,6.029,13.3000,4.60024,2470.194,2021-2-11T04:35:57Z
2021-02-11T02:37:57Z,42.805,6.029,13.3000,4.60026,2470.194,2021-2-11T04:39:00Z
2021-02-11T02:41:00Z,42.805,6.029,13.3001,4.60051,2470.194,2021-2-11T04:42:03Z
2021-02-11T02:44:03Z,42.805,6.029,13.3004,4.60054,2470.203,2021-2-11T04:45:07Z
2021-02-11T02:47:06Z,42.805,6.029,13.3000,4.60044,2470.18,2021-2-11T04:48:10Z
2021-02-11T02:50:09Z,42.805,6.029,13.3004,4.60049,2470.217,2021-2-11T04:51:13Z
2021-02-11T02:53:12Z,42.805,6.029,13.3006,4.60053,2470.156,2021-2-11T04:54:16Z
2021-02-11T02:56:16Z,42.805,6.029,13.2999,4.60059,2470.194,2021-2-11T04:57:19Z
2021-02-11T02:59:19Z,42.805,6.029,13.3006,4.60057,2470.203,2021-2-11T05:00:22Z
2021-02-11T03:02:22Z,42.805,6.029,13.3009,4.60069,2470.194,2021-2-11T05:03:25Z
2021-02-11T03:05:25Z,42.805,6.029,13.3001,4.60039,2470.217,2021-2-11T05:06:28Z
2021-02-11T03:08:28Z,42.805,6.029,13.3006,4.60035,2470.217,2021-2-11T05:09:32Z
2021-02-11T03:11:31Z,42.805,6.029,13.3010,4.60042,2470.194,2021-2-11T05:12:35Z
2021-02-11T03:14:34Z,42.805,6.029,13.3007,4.60047,2470.227,2021-2-11T05:15:38Z
2021-02-11T03:17:37Z,42.805,6.029,13.2999,4.60035,2470.24,2021-2-11T05:18:41Z
2021-02-11T03:20:41Z,42.805,6.029,13.3000,4.60052,2470.203,2021-2-11T05:21:44Z
2021-02-11T03:23:44Z,42.805,6.029,13.3002,4.60045,2470.227,2021-2-11T05:24:47Z
2021-02-11T03:26:47Z,42.805,6.029,13.3011,4.60049,2470.227,2021-2-11T05:27:50Z
2021-02-11T03:29:50Z,42.805,6.029,13.3011,4.60057,2470.227,2021-2-11T05:30:53Z
2021-02-11T03:32:53Z,42.805,6.029,13.3012,4.60055,2470.203,2021-2-11T05:33:57Z
2021-02-11T03:35:56Z,42.805,6.029,13.3004,4.60054,2470.227,2021-2-11T05:37:00Z
2021-02-11T03:38:59Z,42.805,6.029,13.3009,4.60044,2470.203,2021-2-11T05:40:03Z
2021-02-11T03:42:02Z,42.805,6.029,13.3014,4.60046,2470.24,2021-2-11T05:43:06Z
2021-02-11T03:45:06Z,42.805,6.029,13.3019,4.60054,2470.24,2021-2-11T05:46:09Z
2021-02-11T03:48:09Z,42.805,6.029,13.3015,4.60046,2470.24,2021-2-11T05:49:12Z
2021-02-11T03:51:12Z,42.805,6.029,13.3014,4.60044,2470.24,2021-2-11T05:52:15Z
2021-02-11T03:54:15Z,42.805,6.029,13.3000,4.60044,2470.25,2021-2-11T05:55:18Z
2021-02-11T03:57:18Z,42.805,6.029,13.3007,4.60044,2470.264,2021-2-11T05:58:22Z
2021-02-11T04:00:21Z,42.805,6.029,13.3007,4.60049,2470.273,2021-2-11T06:01:25Z
2021-02-11T04:03:24Z,42.805,6.029,13.3003,4.60049,2470.31,2021-2-11T06:04:28Z
2021-02-11T04:06:27Z,42.805,6.029,13.3009,4.60046,2470.273,2021-2-11T06:07:31Z
2021-02-11T04:09:31Z,42.805,6.029,13.2995,4.60014,2470.297,2021-2-11T06:10:34Z
2021-02-11T04:12:34Z,42.805,6.029,13.3007,4.60040,2470.31,2021-2-11T06:13:37Z
2021-02-11T04:15:37Z,42.805,6.029,13.2998,4.60049,2470.273,2021-2-11T06:16:40Z
2021-02-11T04:18:40Z,42.805,6.029,13.3000,4.60046,2470.287,2021-2-11T06:19:43Z
2021-02-11T04:21:43Z,42.805,6.029,13.2998,4.60034,2470.31,2021-2-11T06:22:47Z
2021-02-11T04:24:46Z,42.805,6.029,13.3005,4.60059,2470.273,2021-2-11T06:25:50Z
2021-02-11T04:27:49Z,42.805,6.029,13.2996,4.60033,2470.31,2021-2-11T06:28:53Z
2021-02-11T04:30:52Z,42.805,6.029,13.3000,4.60060,2470.334,2021-2-11T06:31:56Z
2021-02-11T04:33:56Z,42.805,6.029,13.3000,4.60044,2470.334,2021-2-11T06:34:59Z
2021-02-11T04:36:59Z,42.805,6.029,13.3008,4.60046,2470.32,2021-2-11T06:38:02Z
2021-02-11T04:40:02Z,42.805,6.029,13.3006,4.60044,2470.32,2021-2-11T06:41:05Z
2021-02-11T04:43:05Z,42.805,6.029,13.2995,4.60042,2470.32,2021-2-11T06:44:08Z
2021-02-11T04:46:08Z,42.805,6.029,13.2994,4.60027,2470.343,2021-2-11T06:47:12Z
2021-02-11T04:49:11Z,42.805,6.029,13.3006,4.60044,2470.273,2021-2-11T06:50:15Z
2021-02-11T04:52:14Z,42.805,6.029,13.3012,4.60046,2470.32,2021-2-11T06:53:18Z
2021-02-11T04:55:17Z,42.805,6.029,13.3013,4.60056,2470.32,2021-2-11T06:56:21Z
2021-02-11T04:58:20Z,42.805,6.029,13.3004,4.60043,2470.343,2021-2-11T06:59:24Z
2021-02-11T05:01:24Z,42.805,6.029,13.3000,4.60032,2470.357,2021-2-11T07:02:27Z
2021-02-11T05:04:27Z,42.805,6.029,13.3011,4.60033,2470.357,2021-2-11T07:05:30Z
2021-02-11T05:07:30Z,42.805,6.029,13.3009,4.60039,2470.357,2021-2-11T07:08:33Z
2021-02-11T05:10:33Z,42.805,6.029,13.3004,4.60033,2470.343,2021-2-11T07:11:36Z
2021-02-11T05:13:36Z,42.805,6.029,13.3006,4.60036,2470.343,2021-2-11T07:14:40Z
2021-02-11T05:16:39Z,42.805,6.029,13.3007,4.60047,2470.366,2021-2-11T07:17:43Z
2021-02-11T05:19:42Z,42.805,6.029,13.3001,4.60039,2470.366,2021-2-11T07:20:46Z
2021-02-11T05:22:45Z,42.805,6.029,13.3006,4.60044,2470.404,2021-2-11T07:23:49Z
2021-02-11T05:25:49Z,42.805,6.029,13.3006,4.60047,2470.38,2021-2-11T07:26:52Z
2021-02-11T05:28:52Z,42.805,6.029,13.3009,4.60040,2470.366,2021-2-11T07:29:55Z
2021-02-11T05:31:55Z,42.805,6.029,13.2999,4.60038,2470.366,2021-2-11T07:32:58Z
2021-02-11T05:34:58Z,42.805,6.029,13.3006,4.60034,2470.343,2021-2-11T07:36:01Z
2021-02-11T05:38:01Z,42.805,6.029,13.3008,4.60044,2470.366,2021-2-11T07:39:05Z
2021-02-11T05:41:04Z,42.805,6.029,13.3006,4.60052,2470.366,2021-2-11T07:42:08Z
2021-02-11T05:44:07Z,42.805,6.029,13.3004,4.60049,2470.357,2021-2-11T07:45:11Z
2021-02-11T05:47:10Z,42.805,6.029,13.3004,4.60042,2470.32,2021-2-11T07:48:14Z
2021-02-11T05:50:14Z,42.805,6.029,13.3000,4.60037,2470.39,2021-2-11T07:51:17Z
2021-02-11T05:53:17Z,42.805,6.029,13.3007,4.60042,2470.39,2021-2-11T07:54:20Z
2021-02-11T05:56:20Z,42.805,6.029,13.3001,4.60048,2470.404,2021-2-11T07:57:23Z
2021-02-11T05:59:23Z,42.805,6.029,13.3008,4.60053,2470.366,2021-2-11T08:00:26Z
2021-02-11T06:02:26Z,42.805,6.029,13.3013,4.60069,2470.413,2021-2-11T08:03:30Z
2021-02-11T06:05:29Z,42.805,6.029,13.3007,4.60048,2470.38,2021-2-11T08:06:33Z
2021-02-11T06:08:32Z,42.805,6.029,13.3001,4.60048,2470.404,2021-2-11T08:09:36Z
2021-02-11T06:11:35Z,42.805,6.029,13.3015,4.60056,2470.39,2021-2-11T08:12:39Z
2021-02-11T06:14:39Z,42.805,6.029,13.3001,4.60031,2470.343,2021-2-11T08:15:42Z
2021-02-11T06:17:42Z,42.805,6.029,13.3007,4.60057,2470.404,2021-2-11T08:18:45Z
2021-02-11T06:20:45Z,42.805,6.029,13.3006,4.60058,2470.38,2021-2-11T08:21:48Z
2021-02-11T06:23:48Z,42.805,6.029,13.3015,4.60092,2470.404,2021-2-11T08:24:51Z
2021-02-11T06:26:51Z,42.805,6.029,13.3014,4.60063,2470.404,2021-2-11T08:27:55Z
2021-02-11T06:29:54Z,42.805,6.029,13.3014,4.60067,2470.39,2021-2-11T08:30:58Z
2021-02-11T06:32:57Z,42.805,6.029,13.3015,4.60077,2470.404,2021-2-11T08:34:01Z
2021-02-11T06:36:00Z,42.805,6.029,13.3021,4.60065,2470.39,2021-2-11T08:37:04Z
2021-02-11T06:39:04Z,42.805,6.029,13.3005,4.60054,2470.39,2021-2-11T08:40:07Z
2021-02-11T06:42:07Z,42.805,6.029,13.3006,4.60058,2470.394,2021-2-11T08:43:10Z
2021-02-11T06:45:10Z,42.805,6.029,13.2998,4.60078,2470.404,2021-2-11T08:46:13Z
2021-02-11T06:48:13Z,42.805,6.029,13.3006,4.60041,2470.45,2021-2-11T08:49:16Z
2021-02-11T06:51:16Z,42.805,6.029,13.3011,4.60077,2470.39,2021-2-11T08:52:20Z
2021-02-11T06:54:19Z,42.805,6.029,13.3017,4.60060,2470.366,2021-2-11T08:55:23Z
2021-02-11T06:57:22Z,42.805,6.029,13.3013,4.60064,2470.413,2021-2-11T08:58:26Z
2021-02-11T07:00:25Z,42.805,6.029,13.3006,4.60067,2470.39,2021-2-11T09:01:29Z
2021-02-11T07:03:29Z,42.805,6.029,13.3024,4.60072,2470.427,2021-2-11T09:04:32Z
2021-02-11T07:06:32Z,42.805,6.029,13.3004,4.60079,2470.404,2021-2-11T09:07:35Z
2021-02-11T07:09:35Z,42.805,6.029,13.3009,4.60080,2470.427,2021-2-11T09:10:38Z
2021-02-11T07:12:38Z,42.805,6.029,13.3004,4.60097,2470.366,2021-2-11T09:13:41Z
2021-02-11T07:15:41Z,42.805,6.029,13.3032,4.60107,2470.366,2021-2-11T09:16:45Z
2021-02-11T07:18:44Z,42.805,6.029,13.3024,4.60083,2470.427,2021-2-11T09:19:48Z
2021-02-11T07:21:47Z,42.805,6.029,13.3003,4.60081,2470.404,2021-2-11T09:22:51Z
2021-02-11T07:24:50Z,42.805,6.029,13.3008,4.60060,2470.38,2021-2-11T09:25:54Z
2021-02-11T07:27:54Z,42.805,6.029,13.3011,4.60072,2470.45,2021-2-11T09:28:57Z
2021-02-11T07:30:57Z,42.805,6.029,13.3033,4.60055,2470.437,2021-2-11T09:32:00Z
2021-02-11T07:34:00Z,42.805,6.029,13.3016,4.60057,2470.404,2021-2-11T09:35:03Z
2021-02-11T07:37:03Z,42.805,6.029,13.3006,4.60058,2470.404,2021-2-11T09:38:06Z
2021-02-11T07:40:06Z,42.805,6.029,13.3012,4.60059,2470.404,2021-2-11T09:41:10Z
2021-02-11T07:43:09Z,42.805,6.029,13.3018,4.60072,2470.404,2021-2-11T09:44:13Z
2021-02-11T07:46:12Z,42.805,6.029,13.3028,4.60074,2470.404,2021-2-11T09:47:16Z
2021-02-11T07:49:15Z,42.805,6.029,13.3010,4.60069,2470.38,2021-2-11T09:50:19Z
2021-02-11T07:52:18Z,42.805,6.029,13.3022,4.60075,2470.404,2021-2-11T09:53:22Z
2021-02-11T07:55:22Z,42.805,6.029,13.3014,4.60070,2470.404,2021-2-11T09:56:25Z
2021-02-11T07:58:25Z,42.805,6.029,13.3027,4.60046,2470.357,2021-2-11T09:59:28Z
2021-02-11T08:01:28Z,42.805,6.029,13.3030,4.60091,2470.376,2021-2-11T10:02:31Z
2021-02-11T08:04:31Z,42.805,6.029,13.3007,4.60104,2470.39,2021-2-11T10:05:35Z
2021-02-11T08:07:34Z,42.805,6.029,13.3011,4.60052,2470.404,2021-2-11T10:08:38Z
2021-02-11T08:10:37Z,42.805,6.029,13.3027,4.60079,2470.39,2021-2-11T10:11:41Z
2021-02-11T08:13:40Z,42.805,6.029,13.3006,4.60073,2470.366,2021-2-11T10:14:44Z
2021-02-11T08:16:43Z,42.805,6.029,13.3014,4.60092,2470.366,2021-2-11T10:17:47Z
2021-02-11T08:19:47Z,42.805,6.029,13.3006,4.60089,2470.427,2021-2-11T10:20:50Z
2021-02-11T08:22:50Z,42.805,6.029,13.3008,4.60083,2470.404,2021-2-11T10:23:53Z
2021-02-11T08:25:53Z,42.805,6.029,13.3019,4.60106,2470.413,2021-2-11T10:26:56Z
2021-02-11T08:28:56Z,42.805,6.029,13.3020,4.60079,2470.427,2021-2-11T10:30:00Z
2021-02-11T08:31:59Z,42.805,6.029,13.3011,4.60063,2470.39,2021-2-11T10:33:03Z
2021-02-11T08:35:02Z,42.805,6.029,13.3006,4.60072,2470.39,2021-2-11T10:36:06Z
2021-02-11T08:38:05Z,42.805,6.029,13.3006,4.60072,2470.404,2021-2-11T10:39:09Z
2021-02-11T08:41:08Z,42.805,6.029,13.3007,4.60055,2470.366,2021-2-11T10:42:12Z
2021-02-11T08:44:12Z,42.805,6.029,13.3011,4.60087,2470.39,2021-2-11T10:45:15Z
2021-02-11T08:47:15Z,42.805,6.029,13.3014,4.60109,2470.404,2021-2-11T10:48:18Z
2021-02-11T08:50:18Z,42.805,6.029,13.3024,4.60102,2470.38,2021-2-11T10:51:21Z
2021-02-11T08:53:21Z,42.805,6.029,13.3014,4.60105,2470.404,2021-2-11T10:54:25Z
2021-02-11T08:56:24Z,42.805,6.029,13.3030,4.60094,2470.38,2021-2-11T10:57:28Z
2021-02-11T08:59:27Z,42.805,6.029,13.3019,4.60075,2470.38,2021-2-11T11:00:31Z
2021-02-11T09:02:30Z,42.805,6.029,13.3024,4.60073,2470.357,2021-2-11T11:03:34Z
2021-02-11T09:05:34Z,42.805,6.029,13.3022,4.60069,2470.343,2021-2-11T11:06:37Z
2021-02-11T09:08:37Z,42.805,6.029,13.3011,4.60073,2470.366,2021-2-11T11:09:40Z
2021-02-11T09:11:40Z,42.805,6.029,13.3029,4.60077,2470.357,2021-2-11T11:12:43Z
2021-02-11T09:14:43Z,42.805,6.029,13.3006,4.60042,2470.39,2021-2-11T11:15:46Z
2021-02-11T09:17:46Z,42.805,6.029,13.3022,4.60112,2470.343,2021-2-11T11:18:50Z
2021-02-11T09:20:49Z,42.805,6.029,13.3006,4.60044,2470.343,2021-2-11T11:21:53Z
2021-02-11T09:23:52Z,42.805,6.029,13.3008,4.60070,2470.366,2021-2-11T11:24:56Z
2021-02-11T09:26:55Z,42.805,6.029,13.2998,4.60054,2470.343,2021-2-11T11:27:59Z
2021-02-11T09:29:59Z,42.805,6.029,13.3004,4.60082,2470.334,2021-2-11T11:31:02Z
2021-02-11T09:33:02Z,42.805,6.029,13.3005,4.60087,2470.38,2021-2-11T11:34:05Z
2021-02-11T09:36:05Z,42.805,6.029,13.3004,4.60089,2470.357,2021-2-11T11:37:08Z
2021-02-11T09:39:08Z,42.805,6.029,13.3006,4.60095,2470.343,2021-2-11T11:40:11Z
2021-02-11T09:42:11Z,42.805,6.029,13.3012,4.60072,2470.343,2021-2-11T11:43:15Z
2021-02-11T09:45:14Z,42.805,6.029,13.3005,4.60088,2470.297,2021-2-11T11:46:18Z
2021-02-11T09:48:17Z,42.805,6.029,13.3006,4.60041,2470.32,2021-2-11T11:49:21Z
2021-02-11T09:51:20Z,42.805,6.029,13.3009,4.60062,2470.334,2021-2-11T11:52:24Z
2021-02-11T09:54:24Z,42.805,6.029,13.3036,4.60052,2470.32,2021-2-11T11:55:27Z
2021-02-11T09:57:27Z,42.805,6.029,13.3010,4.60088,2470.334,2021-2-11T11:58:30Z
2021-02-11T10:00:30Z,42.805,6.029,13.3025,4.60087,2470.334,2021-2-11T12:01:33Z
2021-02-11T10:03:33Z,42.805,6.029,13.3007,4.60055,2470.334,2021-2-11T12:04:37Z
2021-02-11T10:06:36Z,42.805,6.029,13.3021,4.60072,2470.343,2021-2-11T12:07:40Z
2021-02-11T10:09:39Z,42.805,6.029,13.3000,4.60083,2470.31,2021-2-11T12:10:43Z
2021-02-11T10:12:42Z,42.805,6.029,13.3015,4.60072,2470.334,2021-2-11T12:13:46Z
2021-02-11T10:15:45Z,42.805,6.029,13.3004,4.60085,2470.32,2021-2-11T12:16:49Z
2021-02-11T10:18:49Z,42.805,6.029,13.3014,4.60064,2470.32,2021-2-11T12:19:52Z
2021-02-11T10:21:52Z,42.805,6.029,13.3018,4.60082,2470.287,2021-2-11T12:22:55Z
2021-02-11T10:24:55Z,42.805,6.029,13.3014,4.60078,2470.334,2021-2-11T12:25:58Z
2021-02-11T10:27:58Z,42.805,6.029,13.3029,4.60084,2470.297,2021-2-11T12:29:02Z
2021-02-11T10:31:01Z,42.805,6.029,13.3063,4.60059,2470.31,2021-2-11T12:32:05Z
2021-02-11T10:34:04Z,42.805,6.029,13.3039,4.60030,2470.32,2021-2-11T12:35:08Z
2021-02-11T10:37:07Z,42.805,6.029,13.3028,4.60019,2470.273,2021-2-11T12:38:11Z
2021-02-11T10:40:10Z,42.805,6.029,13.3021,4.60063,2470.31,2021-2-11T12:41:14Z
2021-02-11T10:43:14Z,42.805,6.029,13.3020,4.60044,2470.334,2021-2-11T12:44:17Z
2021-02-11T10:46:17Z,42.805,6.029,13.3018,4.60062,2470.287,2021-2-11T12:47:20Z
2021-02-11T10:49:20Z,42.805,6.029,13.3016,4.60060,2470.31,2021-2-11T12:50:23Z
2021-02-11T10:52:23Z,42.805,6.029,13.3016,4.60043,2470.31,2021-2-11T12:53:27Z
2021-02-11T10:55:26Z,42.805,6.029,13.3027,4.60016,2470.297,2021-2-11T12:56:30Z
2021-02-11T10:58:29Z,42.805,6.029,13.3018,4.60037,2470.297,2021-2-11T12:59:33Z
2021-02-11T11:01:32Z,42.805,6.029,13.3022,4.60006,2470.287,2021-2-11T13:02:36Z
2021-02-11T11:04:36Z,42.805,6.029,13.3004,4.60044,2470.25,2021-2-11T13:05:39Z
2021-02-11T11:07:39Z,42.805,6.029,13.3046,4.60053,2470.273,2021-2-11T13:08:42Z
2021-02-11T11:10:42Z,42.805,6.029,13.3024,4.60014,2470.31,2021-2-11T13:11:45Z
2021-02-11T11:13:45Z,42.805,6.029,13.3019,4.60057,2470.264,2021-2-11T13:14:48Z
2021-02-11T11:16:48Z,42.805,6.029,13.2989,4.60006,2470.273,2021-2-11T13:17:52Z
2021-02-11T11:19:51Z,42.805,6.029,13.2991,4.60006,2470.25,2021-2-11T13:20:55Z
2021-02-11T11:22:54Z,42.805,6.029,13.2989,4.59999,2470.227,2021-2-11T13:23:58Z
2021-02-11T11:25:57Z,42.805,6.029,13.3004,4.60011,2470.287,2021-2-11T13:27:01Z
2021-02-11T11:29:01Z,42.805,6.029,13.3042,4.60038,2470.236,2021-2-11T13:30:04Z
2021-02-11T11:32:04Z,42.805,6.029,13.3014,4.60029,2470.24,2021-2-11T13:33:07Z
2021-02-11T11:35:07Z,42.805,6.029,13.3008,4.60003,2470.25,2021-2-11T13:36:10Z
2021-02-11T11:38:10Z,42.805,6.029,13.2998,4.60009,2470.287,2021-2-11T13:39:13Z
2021-02-11T11:41:13Z,42.805,6.029,13.3000,4.60004,2470.264,2021-2-11T13:42:17Z
2021-02-11T11:44:16Z,42.805,6.029,13.2996,4.60027,2470.236,2021-2-11T13:45:20Z
2021-02-11T11:47:19Z,42.805,6.029,13.2988,4.60014,2470.227,2021-2-11T13:48:23Z
2021-02-11T11:50:22Z,42.805,6.029,13.2992,4.59999,2470.25,2021-2-11T13:51:26Z
2021-02-11T11:53:26Z,42.805,6.029,13.2987,4.59999,2470.264,2021-2-11T13:54:29Z
2021-02-11T11:56:29Z,42.805,6.029,13.2987,4.60005,2470.24,2021-2-11T13:57:32Z
2021-02-11T11:59:32Z,42.805,6.029,13.2985,4.59999,2470.217,2021-2-11T14:00:35Z
2021-02-11T12:02:35Z,42.805,6.029,13.2993,4.60002,2470.24,2021-2-11T14:03:39Z
2021-02-11T12:05:38Z,42.805,6.029,13.2993,4.60002,2470.203,2021-2-11T14:06:42Z
2021-02-11T12:08:41Z,42.805,6.029,13.2994,4.60001,2470.264,2021-2-11T14:09:45Z
2021-02-11T12:11:44Z,42.805,6.029,13.2996,4.59999,2470.25,2021-2-11T14:12:48Z
2021-02-11T12:14:47Z,42.805,6.029,13.2993,4.60003,2470.227,2021-2-11T14:15:51Z
2021-02-11T12:17:51Z,42.805,6.029,13.2998,4.60001,2470.203,2021-2-11T14:18:54Z
2021-02-11T12:20:54Z,42.805,6.029,13.2987,4.60003,2470.189,2021-2-11T14:21:57Z
2021-02-11T12:23:57Z,42.805,6.029,13.2990,4.60004,2470.24,2021-2-11T14:25:00Z
2021-02-11T12:27:00Z,42.805,6.029,13.2987,4.60004,2470.227,2021-2-11T14:28:04Z
2021-02-11T12:30:03Z,42.805,6.029,13.2991,4.59999,2470.227,2021-2-11T14:31:07Z
2021-02-11T12:33:06Z,42.805,6.029,13.2988,4.59996,2470.24,2021-2-11T14:34:10Z
2021-02-11T12:36:09Z,42.805,6.029,13.2994,4.59999,2470.203,2021-2-11T14:37:13Z
2021-02-11T12:39:13Z,42.805,6.029,13.2993,4.59999,2470.203,2021-2-11T14:40:16Z
2021-02-11T12:42:16Z,42.805,6.029,13.2990,4.60010,2470.217,2021-2-11T14:43:19Z
2021-02-11T12:45:19Z,42.805,6.029,13.3006,4.60056,2470.18,2021-2-11T14:46:22Z
2021-02-11T12:48:22Z,42.805,6.029,13.2988,4.60014,2470.217,2021-2-11T14:49:25Z
2021-02-11T12:51:25Z,42.805,6.029,13.2996,4.60000,2470.18,2021-2-11T14:52:29Z
2021-02-11T12:54:28Z,42.805,6.029,13.2998,4.59994,2470.217,2021-2-11T14:55:32Z
2021-02-11T12:57:31Z,42.805,6.029,13.2997,4.60003,2470.171,2021-2-11T14:58:35Z
2021-02-11T13:00:34Z,42.805,6.029,13.2992,4.60005,2470.217,2021-2-11T15:01:38Z
2021-02-11T13:03:38Z,42.805,6.029,13.2990,4.60003,2470.24,2021-2-11T15:04:41Z
2021-02-11T13:06:41Z,42.805,6.029,13.2989,4.59996,2470.194,2021-2-11T15:07:44Z
2021-02-11T13:09:44Z,42.805,6.029,13.2988,4.59997,2470.18,2021-2-11T15:10:47Z
2021-02-11T13:12:47Z,42.805,6.029,13.2987,4.59994,2470.217,2021-2-11T15:13:51Z
2021-02-11T13:15:50Z,42.805,6.029,13.2990,4.59996,2470.194,2021-2-11T15:16:54Z
2021-02-11T13:18:53Z,42.805,6.029,13.2990,4.60000,2470.18,2021-2-11T15:19:57Z
2021-02-11T13:21:56Z,42.805,6.029,13.2991,4.59995,2470.156,2021-2-11T15:23:00Z
2021-02-11T13:24:59Z,42.805,6.029,13.2986,4.59995,2470.156,2021-2-11T15:26:03Z
2021-02-11T13:28:03Z,42.805,6.029,13.2986,4.59994,2470.194,2021-2-11T15:29:06Z
2021-02-11T13:31:06Z,42.805,6.029,13.2988,4.59996,2470.18,2021-2-11T15:32:09Z
2021-02-11T13:34:09Z,42.805,6.029,13.2990,4.59997,2470.156,2021-2-11T15:35:12Z
2021-02-11T13:37:12Z,42.805,6.029,13.2985,4.59994,2470.171,2021-2-11T15:38:16Z
2021-02-11T13:40:15Z,42.805,6.029,13.2986,4.59998,2470.171,2021-2-11T15:41:19Z
2021-02-11T13:43:18Z,42.805,6.029,13.2990,4.59992,2470.217,2021-2-11T15:44:22Z
2021-02-11T13:46:21Z,42.805,6.029,13.2987,4.59996,2470.18,2021-2-11T15:47:25Z
2021-02-11T13:49:24Z,42.805,6.029,13.2986,4.59995,2470.194,2021-2-11T15:50:28Z
2021-02-11T13:52:28Z,42.805,6.029,13.2991,4.59994,2470.171,2021-2-11T15:53:31Z
2021-02-11T13:55:31Z,42.805,6.029,13.2985,4.59996,2470.194,2021-2-11T15:56:34Z
2021-02-11T13:58:34Z,42.805,6.029,13.2988,4.59993,2470.194,2021-2-11T15:59:37Z
2021-02-11T14:01:37Z,42.805,6.029,13.2985,4.59993,2470.18,2021-2-11T16:02:41Z
2021-02-11T14:04:40Z,42.805,6.029,13.2985,4.59995,2470.156,2021-2-11T16:05:44Z
2021-02-11T14:07:43Z,42.805,6.029,13.2983,4.60001,2470.156,2021-2-11T16:08:47Z
2021-02-11T14:10:46Z,42.805,6.029,13.2987,4.59994,2470.18,2021-2-11T16:11:50Z
2021-02-11T14:13:49Z,42.805,6.029,13.2989,4.59998,2470.217,2021-2-11T16:14:53Z
2021-02-11T14:16:53Z,42.805,6.029,13.2987,4.59995,2470.203,2021-2-11T16:17:56Z
2021-02-11T14:19:56Z,42.805,6.029,13.2988,4.59994,2470.156,2021-2-11T16:20:59Z
2021-02-11T14:22:59Z,42.805,6.029,13.2987,4.59994,2470.194,2021-2-11T16:24:02Z
2021-02-11T14:26:02Z,42.805,6.029,13.2987,4.59999,2470.194,2021-2-11T16:27:06Z
2021-02-11T14:29:05Z,42.805,6.029,13.2986,4.59995,2470.18,2021-2-11T16:30:09Z
2021-02-11T14:32:08Z,42.805,6.029,13.2990,4.59996,2470.171,2021-2-11T16:33:12Z
2021-02-11T14:35:11Z,42.805,6.029,13.2984,4.59994,2470.171,2021-2-11T16:36:15Z
2021-02-11T14:38:15Z,42.805,6.029,13.2986,4.59994,2470.18,2021-2-11T16:39:18Z
2021-02-11T14:41:18Z,42.805,6.029,13.2986,4.59994,2470.18,2021-2-11T16:42:21Z
2021-02-11T14:44:21Z,42.805,6.029,13.2988,4.59996,2470.203,2021-2-11T16:45:24Z
2021-02-11T14:47:24Z,42.805,6.029,13.2986,4.59994,2470.194,2021-2-11T16:48:27Z
2021-02-11T14:50:27Z,42.805,6.029,13.2986,4.59992,2470.156,2021-2-11T16:51:31Z
2021-02-11T14:53:30Z,42.805,6.029,13.2983,4.59997,2470.156,2021-2-11T16:54:34Z
2021-02-11T14:56:33Z,42.805,6.029,13.2986,4.59996,2470.171,2021-2-11T16:57:37Z
2021-02-11T14:59:36Z,42.805,6.029,13.2986,4.59993,2470.18,2021-2-11T17:00:40Z
2021-02-11T15:02:40Z,42.805,6.029,13.2987,4.59997,2470.217,2021-2-11T17:03:43Z
2021-02-11T15:05:43Z,42.805,6.029,13.2987,4.59991,2470.18,2021-2-11T17:06:46Z
2021-02-11T15:08:46Z,42.805,6.029,13.2987,4.59994,2470.217,2021-2-11T17:09:49Z
2021-02-11T15:11:49Z,42.805,6.029,13.2989,4.59993,2470.18,2021-2-11T17:12:53Z
2021-02-11T15:14:52Z,42.805,6.029,13.2983,4.59996,2470.18,2021-2-11T17:15:56Z